Weather in Tishanka

Russia / Belgorod Oblast     50°23′22″N   37°31′09″E
temp.,
°C
wind,
m/s
gust,
m/s
humid.,
%
clouds,
%
prec.,
mm/h
press.,
hPa
HPBL,
m
15 may, sat
sat1500:00+16sw35935 0.3 101094
03:00+14sw22850 0.4 101122
06:00+13ssw3485100 0.0 101191
09:00+17ssw467292 0.0 1013366
12:00+21sw56550 0.0 10131256
15:00+22ssw595231 0.0 10132234
18:00+21ssw36634 0.0 1013340
21:00+16sw33740 0.0 101322
16 may, sun
sun1600:00+15ssw22750 0.0 101416
03:00+14sse22740 0.0 101411
06:00+14ese117561 0.0 101411
09:00+20ese23618 0.0 1014351
12:00+23e2349100 0.0 10141325
15:00+24ene3451100 0.0 10131558
18:00+23ne476976 0.0 1011322
21:00+18ene498572 0.3 1011155
17 may, mon
mon1700:00+16ene498139 0.0 1010138
03:00+15ene5137156 0.0 1009219
06:00+14e413775 0.0 1008217
09:00+21ese6156071 0.0 1008629
12:00+24se916555 0.0 10071365
15:00+25se710565 0.0 10071250
18:00+23se6116699 0.0 1006518
21:00+18se41379100 0.0 1006293
18 may, tue
tue1800:00+17sse379098 0.0 1006124
03:00+15s4109514 0.0 1007248
06:00+14s5109355 0.0 1007434
09:00+17s797898 0.0 1008778
12:00+18ssw61078100 0.0 1008804
15:00+22ssw7963100 0.6 10071549
18:00+19s387642 2.3 1007314
21:00+16sse41187100 3.6 1007216
19 may, wed
wed1900:00+14sse4119297 0.3 1006271
03:00+14sse51196100 0.6 1006363
06:00+14s71296100 5.9 1005567
09:00+15ssw71191100 16.4 1006801
12:00+16wsw10137548 1.5 10081303
15:00+16wsw8106886 1.7 10101449
18:00+15wsw57795 0.8 1010891
21:00+12w22875 1.1 101224